[[{"header":{"parameterUnit":"m.s-1","parameterCategory":1,"la1":30.2991,"la2":30.254,"lo1":-89.0895,"lo2":-89.0444,"dy":0.0017,"dx":0.0017,"nx":28,"ny":28,"refTime":"2024-07-24T09:00:00:Z","depth":0,"parameterNumber":2,"parameterNumberName":"U-component_of_WINDS"},"data":[0,0,0,0,0,0,0,0,0,0,0,0,0,0,0,0,0,0,0,0,0,0,0,0,0,0,0,0,0,0,0,0,0,0,0,0,0,0,0,0,0,0,0,0,0,0,0,0,0,0,0,0,0,0,0,0,0,0,2.3474,2.3475,0,2.3554,2.3554,2.3555,2.3554,2.3553,2.3552,2.3551,2.3628,2.3631,2.3634,0,0,0,0,0,0,0,0,0,0,0,0,0,2.3318,2.3321,2.3474,2.3475,2.3476,2.3553,2.3554,2.3556,2.3554,2.3553,2.3552,2.355,2.3627,2.3631,2.3634,0,0,0,0,0,0,0,0,0,0,0,0,0,2.339,2.3322,2.3474,2.3485,2.3487,2.3553,2.3554,2.3556,2.3554,2.3553,2.3551,2.355,2.3626,2.363,2.3635,2.3695,0,0,2.3649,2.3651,0,0,0,0,0,0,0,0,2.3386,2.3396,2.3482,2.3484,2.3486,2.3542,2.3528,2.3602,2.3555,2.3529,2.3551,2.3549,2.3601,2.3607,2.3625,2.3698,2.3702,2.3649,2.3652,2.3654,2.3655,0,0,0,0,0,0,0,2.3381,2.3393,2.3506,2.3484,2.3486,2.3485,2.3493,2.3542,2.3572,2.3531,2.3531,2.354,2.3601,2.3621,2.3627,2.3703,2.3649,2.3653,2.3656,2.3658,2.3827,2.3828,0,0,0,0,0,0,2.3375,2.3389,2.3503,2.3508,2.3432,2.3489,2.3498,2.3526,2.3572,2.3577,2.3542,2.354,2.3614,2.3622,2.363,2.3701,2.3654,2.3658,2.3661,2.3825,2.3827,2.3829,0,0,0,0,0,0,2.3371,2.3385,2.35,2.3448,2.3463,2.3493,2.3524,2.3528,2.3548,2.358,2.3585,2.3556,2.3613,2.3623,2.3678,2.3704,2.366,2.3664,2.3823,2.3826,2.3828,2.3845,0,0,0,0,0,0,2.3367,2.3384,2.3408,2.3449,2.3466,2.3548,2.3526,2.3531,2.3556,2.3555,2.3595,2.36,2.3613,2.3672,2.3683,2.3709,2.3668,2.3821,2.3824,2.3827,2.3843,2.3848,2.3853,0,0,0,0,0,2.3361,2.3409,2.3409,2.3423,2.3496,2.355,2.3559,2.3573,2.3558,2.3582,2.3602,2.3599,2.37,2.3677,2.369,2.3718,2.3819,2.3823,2.3827,2.384,2.3847,2.3853,0,0,0,0,0,0,2.3368,2.3414,2.3415,2.3478,2.351,2.3549,2.3579,2.358,2.3617,2.3614,2.3629,2.3638,2.3692,2.3711,2.3685,2.3778,2.3757,2.3764,2.3763,2.377,2.3775,2.3768,2.3672,0,0,0,0,0,2.3378,2.3418,2.3456,2.3508,2.3524,2.3549,2.3573,2.3581,2.3614,2.3628,2.3652,2.3684,2.3723,2.3748,2.3785,2.3846,2.3854,2.3872,2.3877,2.3881,2.3886,2.3918,2.3926,2.3842,2.3842,2.3842,0,0,2.3396,2.3427,2.3451,2.351,2.3536,2.3576,2.356,2.3604,2.3634,2.3634,2.3687,2.3707,2.3743,2.38,2.3827,2.3818,2.3911,2.3886,2.3889,2.3892,2.3923,2.393,2.3937,2.3845,2.3844,2.3844,0,0,2.3451,2.3479,2.3524,2.355,2.359,2.3607,2.3618,2.3657,2.367,2.3725,2.3725,2.376,2.3827,2.3852,2.3874,2.3938,2.3935,2.395,2.3976,2.4007,2.4014,2.4019,2.404,2.4048,2.3955,2.3955,2.3955,0,2.3468,2.353,2.3547,2.3591,2.3615,2.3619,2.3664,2.3689,2.3738,2.3755,2.3744,2.3828,2.3852,2.3915,2.3931,2.3949,2.396,2.3944,2.4012,2.4018,2.4023,2.4043,2.4051,2.3956,2.3956,2.3956,2.3956,0,2.3549,2.3592,2.3624,2.3673,2.3701,2.3746,2.3767,2.3794,2.38,2.3817,2.3871,2.3901,2.3944,2.396,2.3966,2.4024,2.4016,2.4009,2.3988,2.4032,2.4051,2.4059,2.3958,2.3958,2.3957,2.3957,0,0,2.3609,2.3667,2.3678,2.3699,2.3744,2.3777,2.3821,2.3864,2.3886,2.392,2.3956,2.4012,2.4005,2.403,2.4038,2.4066,2.4112,2.4055,2.4056,2.4062,2.4175,2.4179,2.4188,2.4112,2.4113,2.4115,2.4171,0,2.3666,2.3745,2.3761,2.3829,2.3868,2.3872,2.391,2.3941,2.3958,2.3992,2.4011,2.405,2.4039,2.4053,2.4081,2.4101,2.4135,2.4097,2.4143,2.4144,2.4132,2.4198,2.4203,2.4255,2.4179,2.418,2.4181,0,2.3744,2.3781,2.3852,2.3891,2.3908,2.3942,2.3982,2.4016,2.405,2.406,2.4088,2.4094,2.4138,2.4117,2.4176,2.4151,2.417,2.4183,2.4185,2.4188,2.4164,2.4201,2.4272,2.4279,2.4193,2.4192,2.4192,0,2.3777,2.3845,2.3897,2.3915,2.3962,2.3986,2.4006,2.4039,2.4063,2.4098,2.4114,2.4153,2.4174,2.4204,2.422,2.4203,2.4277,2.4258,2.4285,2.4285,2.4299,2.4298,2.4372,2.4316,2.4316,2.4315,2.4315,0,2.3839,2.3882,2.3912,2.3944,2.3992,2.4009,2.4056,2.4076,2.4105,2.4139,2.4146,2.4177,2.4197,2.4231,2.4244,2.429,2.43,2.4308,2.431,2.4306,2.4305,2.4318,2.4314,2.4317,2.4317,2.4317,2.4316,0,2.3884,2.3906,2.3962,2.4002,2.4013,2.4047,2.408,2.411,2.4128,2.4171,2.4182,2.4209,2.4249,2.4268,2.4318,2.4326,2.4378,2.4379,2.4367,2.4367,2.4393,2.4389,2.4476,2.4488,2.4425,2.4426,2.4427,0,2.392,2.3954,2.3997,2.4021,2.4043,2.4081,2.4106,2.4125,2.4151,2.4192,2.4216,2.4257,2.4291,2.4355,2.4378,2.4415,2.4416,2.4444,2.4422,2.4416,2.4414,2.4411,2.4413,2.4447,2.4448,2.4448,2.4449,0,2.3982,2.3991,2.4028,2.4069,2.4099,2.4132,2.4164,2.4183,2.4206,2.4235,2.4277,2.4303,2.4354,2.4394,2.4433,2.4452,2.4454,2.4456,2.4464,2.4459,2.445,2.4453,2.4375,2.4453,2.4453,2.4453,2.4452,2.4452,2.4023,2.4052,2.4087,2.4128,2.4154,2.4184,2.4214,2.4235,2.4271,2.4315,2.4323,2.4367,2.4399,2.4453,2.4473,2.4507,2.45,2.4512,2.4515,2.4517,2.4517,2.4446,2.4514,2.4514,2.4514,2.4514,2.4514,0,2.4083,2.4106,2.4143,2.4188,2.422,2.4221,2.4256,2.4282,2.4321,2.4351,2.4385,2.4432,2.447,2.4497,2.4536,2.4557,2.4559,2.4566,2.4564,2.4568,2.4522,2.451,2.4564,2.4564,2.4564,2.4564,2.4564,2.4564,2.4118,2.4167,2.4181,2.4243,2.4265,2.4309,2.4329,2.4356,2.438,2.4433,2.4466,2.4483,2.4512,2.4553,2.4587,2.4594,2.4607,2.4615,2.4621,2.4577,2.4571,2.4566,2.4555,2.4618,2.4618,2.4663,2.4664,2.4664]},{"header":{"parameterUnit":"m.s-1","parameterCategory":1,"la1":30.2991,"la2":30.254,"lo1":-89.0895,"lo2":-89.0444,"dy":0.0017,"dx":0.0017,"nx":28,"ny":28,"refTime":"2024-07-24T09:00:00:Z","depth":0,"parameterNumber":3,"parameterNumberName":"V-component_of_WINDS"},"data":[0,0,0,0,0,0,0,0,0,0,0,0,0,0,0,0,0,0,0,0,0,0,0,0,0,0,0,0,0,0,0,0,0,0,0,0,0,0,0,0,0,0,0,0,0,0,0,0,0,0,0,0,0,0,0,0,0,0,-0.1574,-0.1571,0,-0.1328,-0.1325,-0.1322,-0.1238,-0.1239,-0.1241,-0.1241,-0.0983,-0.0975,-0.0968,0,0,0,0,0,0,0,0,0,0,0,0,0,-0.1966,-0.1959,-0.1574,-0.1571,-0.1568,-0.1328,-0.1325,-0.1321,-0.1238,-0.124,-0.1241,-0.1242,-0.0985,-0.0976,-0.0967,0,0,0,0,0,0,0,0,0,0,0,0,0,-0.1765,-0.1957,-0.1574,-0.1498,-0.1488,-0.1329,-0.1324,-0.132,-0.1238,-0.124,-0.1241,-0.1243,-0.0989,-0.0977,-0.0966,-0.0862,0,0,-0.093,-0.0925,0,0,0,0,0,0,0,0,-0.1777,-0.1751,-0.1512,-0.1503,-0.1492,-0.1315,-0.1368,-0.1167,-0.1238,-0.1333,-0.1242,-0.1243,-0.1092,-0.1072,-0.1022,-0.085,-0.0839,-0.0929,-0.0921,-0.0916,-0.0913,0,0,0,0,0,0,0,-0.1791,-0.1761,-0.1476,-0.1509,-0.1496,-0.1473,-0.1446,-0.1329,-0.1207,-0.1325,-0.1318,-0.129,-0.1087,-0.1034,-0.1015,-0.0835,-0.0929,-0.0918,-0.0911,-0.0907,-0.0564,-0.0562,0,0,0,0,0,0,-0.1818,-0.1773,-0.1484,-0.1469,-0.1641,-0.1465,-0.1435,-0.137,-0.1208,-0.1184,-0.1289,-0.1287,-0.1053,-0.1029,-0.1006,-0.0872,-0.0917,-0.0905,-0.0899,-0.0566,-0.0564,-0.0562,0,0,0,0,0,0,-0.1827,-0.1793,-0.1494,-0.1619,-0.1579,-0.1457,-0.1385,-0.1365,-0.1312,-0.1181,-0.1158,-0.1258,-0.1053,-0.1022,-0.0899,-0.0862,-0.09,-0.0889,-0.0569,-0.0566,-0.0563,-0.0606,0,0,0,0,0,0,-0.1839,-0.1797,-0.1758,-0.1619,-0.1573,-0.1393,-0.1383,-0.1359,-0.1292,-0.1287,-0.1146,-0.1123,-0.1052,-0.0917,-0.0887,-0.0847,-0.088,-0.0571,-0.0567,-0.0564,-0.0608,-0.0605,-0.0603,0,0,0,0,0,-0.1853,-0.1779,-0.1757,-0.1722,-0.1522,-0.1391,-0.1364,-0.1286,-0.129,-0.1248,-0.1164,-0.1128,-0.0872,-0.0905,-0.0871,-0.0826,-0.0573,-0.0568,-0.0564,-0.0609,-0.0606,-0.0603,0,0,0,0,0,0,-0.1915,-0.176,-0.1733,-0.1612,-0.1516,-0.1377,-0.1323,-0.1285,-0.1184,-0.1183,-0.1088,-0.1056,-0.0939,-0.0871,-0.091,-0.0717,-0.072,-0.0709,-0.0766,-0.0762,-0.076,-0.0778,-0.0871,0,0,0,0,0,-0.1916,-0.1824,-0.1692,-0.1599,-0.1552,-0.1446,-0.1386,-0.1334,-0.1229,-0.1187,-0.1094,-0.0992,-0.0888,-0.0822,-0.0719,-0.0598,-0.0564,-0.0551,-0.0549,-0.0548,-0.0538,-0.0466,-0.0458,-0.0547,-0.0547,-0.0547,0,0,-0.1914,-0.1818,-0.1765,-0.1609,-0.1528,-0.1433,-0.1412,-0.1313,-0.1241,-0.1171,-0.1049,-0.0977,-0.0857,-0.0734,-0.0675,-0.0672,-0.0506,-0.0542,-0.0542,-0.0532,-0.0461,-0.0453,-0.0445,-0.0543,-0.0544,-0.0544,0,0,-0.1862,-0.1782,-0.1694,-0.1613,-0.1492,-0.1422,-0.1401,-0.1268,-0.1218,-0.1095,-0.104,-0.0952,-0.0776,-0.0692,-0.0626,-0.0543,-0.0505,-0.0512,-0.05,-0.0432,-0.0425,-0.0418,-0.0386,-0.0376,-0.0504,-0.0504,-0.0504,0,-0.1875,-0.1732,-0.1653,-0.1556,-0.1488,-0.1423,-0.1332,-0.1257,-0.1108,-0.1061,-0.1062,-0.0839,-0.0753,-0.0609,-0.0589,-0.0538,-0.0509,-0.0527,-0.0433,-0.0425,-0.0417,-0.0386,-0.0374,-0.0505,-0.0505,-0.0505,-0.0505,0,-0.1752,-0.1654,-0.1597,-0.1457,-0.1382,-0.1289,-0.1193,-0.1127,-0.1082,-0.1011,-0.0884,-0.078,-0.0655,-0.0617,-0.0571,-0.0465,-0.0467,-0.0452,-0.0452,-0.0412,-0.038,-0.0368,-0.0508,-0.0507,-0.0507,-0.0506,0,0,-0.1731,-0.1549,-0.1529,-0.1463,-0.1325,-0.1246,-0.1149,-0.1029,-0.0972,-0.0872,-0.0786,-0.0639,-0.0624,-0.0549,-0.0493,-0.0434,-0.0372,-0.0425,-0.042,-0.0416,-0.0246,-0.0257,-0.0245,-0.0347,-0.0344,-0.0342,-0.0255,0,-0.166,-0.1486,-0.1412,-0.1271,-0.1177,-0.1115,-0.103,-0.0934,-0.0866,-0.0775,-0.0699,-0.0595,-0.0584,-0.0539,-0.0477,-0.0393,-0.0336,-0.0398,-0.0264,-0.026,-0.0294,-0.0228,-0.024,-0.0163,-0.0243,-0.0241,-0.0239,0,-0.1553,-0.1453,-0.1304,-0.1175,-0.1133,-0.1059,-0.0941,-0.0857,-0.0746,-0.0701,-0.0618,-0.0565,-0.0459,-0.0469,-0.032,-0.0364,-0.0304,-0.0255,-0.025,-0.0232,-0.0246,-0.0207,-0.0136,-0.0124,-0.022,-0.0221,-0.0223,0,-0.1549,-0.1378,-0.1266,-0.1212,-0.1061,-0.1009,-0.0943,-0.0835,-0.0767,-0.0664,-0.0618,-0.0504,-0.044,-0.0352,-0.0269,-0.0284,-0.0126,-0.013,-0.0083,-0.0085,-0.005,-0.0053,0.0033,-0.0017,-0.0017,-0.0017,-0.0018,0,-0.1476,-0.1386,-0.1262,-0.1193,-0.109,-0.1005,-0.0905,-0.0834,-0.0738,-0.0652,-0.0591,-0.0511,-0.0408,-0.0314,-0.0248,-0.0133,-0.0106,-0.0064,-0.0047,-0.0068,-0.0073,-0.0025,-0.0028,-0.0014,-0.0015,-0.0015,-0.0016,0,-0.1454,-0.1368,-0.1241,-0.1108,-0.1073,-0.1003,-0.0888,-0.0817,-0.0746,-0.0638,-0.0608,-0.0496,-0.0383,-0.0292,-0.0144,-0.0099,0.0022,0.004,-0.0016,-0.0006,0.0037,0.0032,0.0158,0.018,0.0113,0.0113,0.0113,0,-0.1411,-0.1341,-0.1201,-0.1141,-0.1076,-0.0978,-0.0909,-0.0822,-0.0752,-0.0621,-0.0566,-0.0449,-0.035,-0.0172,-0.0076,0.0038,0.0061,0.0097,0.0079,0.0056,0.0065,0.006,0.0069,0.01,0.01,0.01,0.01,0,-0.1344,-0.1305,-0.1209,-0.1097,-0.1016,-0.0923,-0.0829,-0.0782,-0.0678,-0.0601,-0.0486,-0.041,-0.0259,-0.0142,-0.0019,0.0052,0.0095,0.0105,0.0123,0.0103,0.0069,0.0091,-0.0008,0.0102,0.0102,0.0102,0.0102,0.0102,-0.1308,-0.1243,-0.1134,-0.1028,-0.0948,-0.0861,-0.0788,-0.0709,-0.0612,-0.0483,-0.0438,-0.0319,-0.0209,-0.0038,0.0033,0.0129,0.0133,0.0157,0.0164,0.017,0.0168,0.0051,0.0152,0.0152,0.0152,0.0152,0.0152,0,-0.1236,-0.1164,-0.1067,-0.0938,-0.0854,-0.0824,-0.0718,-0.0649,-0.0545,-0.0448,-0.0353,-0.0219,-0.0106,-0.0002,0.0117,0.0174,0.0197,0.0202,0.0201,0.0217,0.0157,0.0131,0.0182,0.0182,0.0182,0.0182,0.0182,0.0182,-0.1189,-0.1075,-0.1023,-0.0869,-0.0795,-0.068,-0.0621,-0.054,-0.0462,-0.0316,-0.0222,-0.0156,-0.0055,0.0072,0.0177,0.0205,0.0247,0.0249,0.0282,0.0225,0.0221,0.0217,0.0193,0.0256,0.0256,0.0334,0.0335,0.0335]}]]